TimeEST,TemperatureF,Dew PointF,Humidity,Sea Level PressureIn,VisibilityMPH,Wind Direction,Wind SpeedMPH,Gust SpeedMPH,PrecipitationIn,Events,Conditions,WindDirDegrees,DateUTC
12:53 AM,37.9,23.0,55,30.26,10.0,North,12.7,-,N/A,,Clear,360,2012-12-06 05:53:00
1:53 AM,37.0,21.9,54,30.26,10.0,NNW,9.2,19.6,N/A,,Clear,340,2012-12-06 06:53:00
2:53 AM,35.1,21.9,59,30.29,10.0,NNW,5.8,-,N/A,,Clear,330,2012-12-06 07:53:00
3:53 AM,33.1,21.9,64,30.29,10.0,NNW,6.9,-,N/A,,Clear,340,2012-12-06 08:53:00
4:53 AM,32.0,23.0,69,30.30,10.0,NNW,6.9,-,N/A,,Clear,330,2012-12-06 09:53:00
5:53 AM,30.9,23.0,72,30.32,10.0,NNW,6.9,-,N/A,,Clear,330,2012-12-06 10:53:00
6:53 AM,28.0,23.0,81,30.33,10.0,Calm,Calm,-,N/A,,Partly Cloudy,0,2012-12-06 11:53:00
7:53 AM,32.0,25.0,75,30.34,10.0,North,3.5,-,N/A,,Clear,360,2012-12-06 12:53:00
8:53 AM,37.9,25.0,60,30.36,10.0,NE,12.7,-,N/A,,Clear,50,2012-12-06 13:53:00
9:53 AM,39.9,26.1,58,30.38,10.0,NNE,11.5,20.7,N/A,,Clear,30,2012-12-06 14:53:00
10:21 AM,39.2,26.6,61,30.38,10.0,NE,12.7,18.4,N/A,,Partly Cloudy,40,2012-12-06 15:21:00
10:53 AM,39.9,27.0,60,30.37,10.0,NNE,10.4,-,N/A,,Clear,20,2012-12-06 15:53:00
11:53 AM,41.0,28.9,62,30.34,10.0,NE,6.9,-,N/A,,Scattered Clouds,40,2012-12-06 16:53:00
12:17 PM,39.2,28.4,65,30.33,10.0,NNE,6.9,-,N/A,,Mostly Cloudy,20,2012-12-06 17:17:00
12:53 PM,39.9,28.9,65,30.33,10.0,ENE,5.8,-,N/A,,Mostly Cloudy,70,2012-12-06 17:53:00
1:32 PM,39.2,30.2,70,30.32,10.0,North,-9999.0,-,N/A,,Overcast,0,2012-12-06 18:32:00
1:53 PM,39.9,30.0,68,30.31,10.0,ENE,3.5,-,N/A,,Overcast,70,2012-12-06 18:53:00
2:53 PM,42.1,30.9,65,30.31,10.0,East,3.5,-,N/A,,Overcast,90,2012-12-06 19:53:00
3:53 PM,41.0,30.9,67,30.30,10.0,Variable,3.5,-,N/A,,Mostly Cloudy,0,2012-12-06 20:53:00
4:26 PM,39.2,30.2,70,30.31,10.0,Calm,Calm,-,N/A,,Scattered Clouds,0,2012-12-06 21:26:00
4:33 PM,39.2,30.2,70,30.31,10.0,Calm,Calm,-,N/A,,Mostly Cloudy,0,2012-12-06 21:33:00
4:53 PM,37.9,30.9,76,30.31,10.0,West,3.5,-,N/A,,Overcast,280,2012-12-06 21:53:00
5:53 PM,35.1,30.0,82,30.31,10.0,Calm,Calm,-,N/A,,Mostly Cloudy,0,2012-12-06 22:53:00
6:53 PM,33.1,30.9,92,30.31,10.0,Calm,Calm,-,N/A,,Mostly Cloudy,0,2012-12-06 23:53:00
7:53 PM,30.9,28.0,89,30.31,10.0,Calm,Calm,-,N/A,,Mostly Cloudy,0,2012-12-07 00:53:00
8:53 PM,30.9,28.0,89,30.30,10.0,NW,4.6,-,N/A,,Mostly Cloudy,320,2012-12-07 01:53:00
9:53 PM,33.1,30.9,92,30.30,10.0,Calm,Calm,-,N/A,,Overcast,0,2012-12-07 02:53:00
10:53 PM,30.9,28.9,92,30.29,10.0,NNW,3.5,-,N/A,,Scattered Clouds,340,2012-12-07 03:53:00
11:53 PM,30.0,28.0,92,30.28,10.0,North,4.6,-,N/A,,Clear,350,2012-12-07 04:53:00